Погода в Сафаге

Египет     26°44′53″N   33°56′24″E
темп.,
°C
ветер,
м/с
пор.,
м/с
влажн.,
%
обл.,
%
осадки,
мм/ч
давл.,
гПа
погр.,
м
15 апреля, чт
чт1523:00+24сз610404 0.0 1013121
02:00+24ссз56420 0.0 1012102
05:00+22ссз69420 0.0 1012226
08:00+23ссз810410 0.0 1014306
11:00+24ссв89500 0.0 1013180
14:00+24ссв79570 0.0 1011192
17:00+25с56500 0.0 101081
20:00+24ссз44490 0.0 101045
16 апреля, пт
пт1623:00+25сз23440 0.0 101028
02:00+25ссз711405 0.0 1009138
05:00+23ссз694635 0.0 1010145
08:00+25с56415 0.0 101196
11:00+25ссв895153 0.0 1011149
14:00+25ссв56525 0.0 100984
17:00+26ссз55453 0.0 100856
20:00+26сз44450 0.0 100931
17 апреля, сб
сб1723:00+27ссз812380 0.0 1009134
02:00+25ссз813410 0.0 1009177
05:00+24ссз711450 0.0 1009153
08:00+25с810410 0.0 1011162
11:00+26ссв78450 0.0 1011113
14:00+26ссв67480 0.0 101088
17:00+26ссв33540 0.0 100934
20:00+26ссз33460 0.0 101013
18 апреля, вс
вс1823:00+26сз44450 0.0 101126
02:00+26ссз34460 0.0 101026
05:00+24ссз33570 0.0 101246
08:00+25зсз11540 0.0 101435
11:00+25всв44590 0.0 101370
14:00+23в22600 0.0 101164
17:00+26ю22560 0.0 101025
20:00+26вюв22520 0.0 101111
19 апреля, пн
пн1923:00+26ююз33520 0.0 101112
02:00+26ююв11510 0.0 101111
05:00+25ю33575 0.0 101116
08:00+27ююв224984 0.0 101238
11:00+25вюв446166 0.0 101280
14:00+25ююв3468100 0.0 101089
17:00+25ююв4467100 0.0 100955
20:00+26ю446295 0.0 101022